Overview Statistics Trail Chart Weather Telemetry Raw packets
 

This is the latest recevied weather packets stored in our database for station/object PP5CFL-2. If no packets are shown the sender has not sent any weather packets the latest 10 day(s).

<< 2 3 4 5 6 7 8 >>
Time Temp. Humidity Pressure Rain* Wind** Luminosity Snow
1788648720 16.67° C 59% 1020.5 hPa - - - -
1788648420 16.67° C 58% 1020.5 hPa - - - -
1788648120 17.22° C 58% 1020.4 hPa - - - -
1788647820 17.22° C 58% 1020.2 hPa - - - -
1788647520 17.22° C 56% 1020.1 hPa - - - -
1788647220 17.22° C 56% 1020 hPa - - - -
1788646945 17.22° C 57% 1020.1 hPa - - - -
1788646620 17.22° C 55% 1020.1 hPa - - - -
1788646320 17.22° C 56% 1019.9 hPa - - - -
1788646020 17.22° C 54% 1019.7 hPa - - - -
1788645720 17.78° C 55% 1019.7 hPa - - - -
1788645420 17.78° C 55% 1019.6 hPa - - - -
1788645120 17.78° C 56% 1019.6 hPa - - - -
1788644820 17.78° C 55% 1019.4 hPa - - - -
1788644520 17.22° C 54% 1019.4 hPa - - - -
1788644220 17.78° C 54% 1019.2 hPa - - - -
1788643920 17.78° C 53% 1019.1 hPa - - - -
1788643620 17.78° C 53% 1019 hPa - - - -
1788643320 17.78° C 55% 1019 hPa - - - -
1788643020 17.78° C 54% 1018.9 hPa - - - -
1788642720 17.78° C 54% 1018.8 hPa - - - -
1788642420 18.33° C 54% 1018.7 hPa - - - -
1788642120 18.33° C 57% 1018.5 hPa - - - -
1788641820 18.33° C 59% 1018.4 hPa - - - -
1788641520 18.33° C 65% 1018.4 hPa - - - -

* Rain since midnight (hover to see other rain measurements)
** Current wind speed in m/s (hover to see current wind gust speed)